DW0756 Weather Reports


time (UTC)temp
C
wind
direction
speed
KPH
gust
KPH
rain 1hr
cm
rain 24hr
cm
rain mn
cm
humidity
%
barometer
mb
20260506123105 20 227 3.2 11.3 0.00 0.03 0.00
20260506122106 18 254 3.2 14.5 0.00 0.03 0.00
20260506121605 18 278 3.2 14.5 0.00 0.03 0.00
20260506120607 18 20 1.6 14.5 0.00 0.03 0.00
20260506115605 18 322 1.6 14.5 0.00 0.03 0.00
20260506114605 18 266 3.2 16.1 0.00 0.03 0.00
20260506113605 18 275 4.8 19.3 0.00 0.03 0.00
20260506112606 18 251 6.4 14.5 0.00 0.03 0.00
20260506112106 18 294 3.2 14.5 0.00 0.03 0.00
20260506111606 18 322 3.2 19.3 0.00 0.03 0.00
20260506111107 18 294 4.8 29.0 0.00 0.03 0.00
20260506110606 18 312 1.6 29.0 0.00 0.03 0.00
20260506110106 18 272 3.2 12.9 0.00 0.03 0.00
20260506105606 18 331 4.8 16.1 0.00 0.03 0.00
20260506105106 17 313 3.2 16.1 0.00 0.05 0.00
20260506104605 17 265 4.8 16.1 0.00 0.10 0.00
20260506104105 17 278 3.2 12.9 0.00 0.10 0.00
20260506103605 17 237 4.8 12.9 0.00 0.10 0.00
20260506103105 17 259 3.2 11.3 0.00 0.10 0.00
20260506102606 17 286 3.2 11.3 0.00 0.10 0.00
20260506101605 17 266 1.6 20.9 0.00 0.10 0.00
20260506101105 17 270 4.8 20.9 0.00 0.10 0.00
20260506100605 17 270 4.8 16.1 0.00 0.10 0.00
20260506092604 17 311 4.8 32.2 0.00 0.10 0.00
20260506090604 17 283 4.8 16.1 0.00 0.10 0.00
20260506085604 17 317 3.2 16.1 0.00 0.10 0.00
20260506084604 17 269 4.8 16.1 0.00 0.10 0.00
20260506083105 17 267 3.2 12.9 0.00 0.10 0.00
20260506072604 18 285 3.2 19.3 0.00 0.10 0.00
20260506070605 18 232 4.8 14.5 0.00 0.10 0.00
20260506062104 20 307 4.8 14.5 0.00 0.10 0.00
20260506061603 19 270 4.8 19.3 0.00 0.10 0.00
20260506050604 20 277 3.2 11.3 0.00 0.10 0.00
20260506045104 20 287 4.8 20.9 0.00 0.10 0.00
20260506043604 20 240 4.8 20.9 0.00 0.10 0.00
20260506043104 20 347 6.4 20.9 0.00 0.10 0.00
20260506041604 20 264 1.6 12.9 0.00 0.10 0.00
20260506041104 21 275 4.8 22.5 0.00 0.10 0.00
20260506040105 21 280 3.2 19.3 0.00 0.10 0.00
20260506035604 21 267 6.4 20.9 0.00 0.10 0.10
20260506035103 21 253 4.8 20.9 0.00 0.10 0.10
20260506033604 21 248 3.2 19.3 0.00 0.10 0.10
20260506031603 21 317 3.2 8.0 0.00 0.10 0.10
20260506030603 21 346 3.2 22.5 0.00 0.10 0.10
20260506030104 21 304 3.2 22.5 0.00 0.10 0.10
20260506025104 21 261 3.2 19.3 0.00 0.10 0.10
20260506024104 21 315 3.2 14.5 0.00 0.10 0.10
20260506023104 22 283 4.8 19.3 0.00 0.10 0.10
20260506022605 22 162 4.8 19.3 0.00 0.10 0.10
20260506021604 22 274 9.7 25.7 0.00 0.10 0.10
20260506020604 22 285 3.2 22.5 0.00 0.10 0.10
20260506020104 22 284 6.4 20.9 0.00 0.10 0.10
20260506015604 22 306 4.8 19.3 0.00 0.10 0.10
20260506013104 22 253 4.8 20.9 0.00 0.10 0.10
20260506010604 23 259 8.0 19.3 0.00 0.10 0.10
20260506003604 22 231 4.8 16.1 0.00 0.10 0.10
20260506003105 23 281 4.8 16.1 0.00 0.10 0.10
20260506002604 22 244 3.2 9.7 0.00 0.10 0.10
20260506002104 22 236 4.8 16.1 0.00 0.10 0.10
20260506001604 22 269 3.2 16.1 0.00 0.10 0.10
20260506000604 22 255 1.6 11.3 0.00 0.10 0.10
20260506000105 22 295 1.6 11.3 0.00 0.10 0.10
20260505231604 25 272 3.2 16.1 0.00 0.10 0.10
20260505225604 25 246 3.2 16.1 0.00 0.10 0.10
20260505225103 25 271 6.4 16.1 0.00 0.10 0.10
20260505224605 26 286 6.4 16.1 0.00 0.10 0.10
20260505224104 26 280 3.2 25.7 0.00 0.10 0.10
20260505223604 26 276 8.0 25.7 0.00 0.10 0.10
20260505223104 26 279 6.4 25.7 0.00 0.10 0.10
20260505222104 27 277 12.9 37.0 0.00 0.10 0.10
20260505221103 26 287 9.7 27.4 0.00 0.10 0.10
20260505220604 28 284 9.7 25.7 0.00 0.10 0.10
20260505215604 28 246 9.7 22.5 0.00 0.10 0.10
20260505215104 28 266 6.4 19.3 0.00 0.10 0.10
20260505214604 28 279 3.2 16.1 0.00 0.10 0.10
20260505212103 27 281 8.0 27.4 0.00 0.10 0.10
20260505205605 27 297 8.0 37.0 0.00 0.10 0.10
20260505205104 28 279 8.0 37.0 0.00 0.10 0.10
20260505203604 28 278 9.7 20.9 0.00 0.10 0.10
20260505203103 28 285 9.7 20.9 0.00 0.10 0.10
20260505202604 30 296 4.8 24.1 0.00 0.10 0.10
20260505201604 28 274 8.0 40.2 0.00 0.10 0.10
20260505201104 28 303 9.7 40.2 0.00 0.10 0.10
20260505200604 29 262 6.4 35.4 0.00 0.10 0.10
20260505195604 31 310 8.0 24.1 0.00 0.10 0.10
20260505194603 30 277 8.0 19.3 0.00 0.10 0.10
20260505194104 29 274 6.4 22.5 0.00 0.10 0.10
20260505193604 31 287 9.7 29.0 0.00 0.10 0.10
20260505193104 30 303 9.7 32.2 0.00 0.10 0.10
20260505192604 31 286 9.7 32.2 0.00 0.10 0.10
20260505192104 30 295 6.4 29.0 0.00 0.10 0.10
20260505191104 28 290 9.7 27.4 0.00 0.10 0.10
20260505185603 29 285 8.0 32.2 0.00 0.10 0.10
20260505184604 30 288 8.0 25.7 0.00 0.10 0.10
20260505183104 28 293 8.0 29.0 0.00 0.10 0.10
20260505182604 28 267 4.8 19.3 0.00 0.10 0.10
20260505181604 29 266 8.0 29.0 0.00 0.10 0.10
20260505175104 28 274 9.7 33.8 0.00 0.10 0.10
20260505173604 31 288 8.0 35.4 0.03 0.10 0.10
20260505172604 28 281 11.3 37.0 0.03 0.10 0.10
20260505172104 28 326 11.3 37.0 0.03 0.10 0.10
20260505171604 28 296 4.8 25.7 0.03 0.10 0.10
20260505171104 28 279 8.0 25.7 0.03 0.10 0.10
20260505170604 28 329 8.0 20.9 0.03 0.10 0.10
20260505165603 27 231 9.7 24.1 0.03 0.10 0.10
20260505164604 27 313 9.7 20.9 0.00 0.08 0.08
20260505164104 27 303 4.8 16.1 0.00 0.08 0.08
20260505162104 27 309 6.4 24.1 0.00 0.08 0.08
20260505160604 27 298 6.4 27.4 0.00 0.08 0.08
20260505152104 26 320 8.0 16.1 0.00 0.08 0.08
20260505151104 25 301 8.0 22.5 0.00 0.08 0.08
20260505150604 25 288 9.7 22.5 0.00 0.08 0.08
20260505150104 25 306 6.4 19.3 0.00 0.08 0.08
20260505140104 23 290 8.0 12.9 0.00 0.08 0.08
20260505124604 18 353 3.2 4.8 0.00 0.08 0.08
20260505123604 17 21 0.0 3.2 0.00 0.08 0.08